Location: Unspecified
(43.4354°N, 0.0000°E)
Time: 06:05:50
(UTC+00:00)

S-56A Canister/Altair - Pass Details

Date: 26 June 2019
Orbit: 632 x 2500 km, 38.9° (Epoch: 17 July)

Event Time Altitude Azimuth Distance (km) Brightness Sun altitude
Rises 19:37:01 0° 278° (W) 4,158 12.7 0.4°
Reaches altitude 10° 19:40:42 10° 267° (W) 2,876 11.4 -0.2°
Maximum altitude 19:46:03 26° 213° (SSW) 1,587 9.2 -1.0°
Drops below altitude 10° 19:50:12 10° 156° (SSE) 2,195 9.4 -1.6°
Enters shadow 19:52:25 - 144° (SE) 2,922 9.9 -2.0°
Sets 19:52:38 0° 143° (SE) 3,000 - -2.0°
